N801XA OEDF-OEAH

Flight info

Callsign N801XA
Flight time 0h 29m
Altitude 14000
Route OEDF/34R N0322F140 RYDA2F RYDAN J621 HSA DCT OEAH/34
Aircraft B738/M-SDE3FGHIRWY/LB1

Departure

Time 2026-04-21 12:47
Airport King Fahd International Airport (OEDF)

Arrival

Time 2026-04-21 13:17
Airport Al-Ahsa International Airport (OEAH)
Time Latitude Longitude Altitude Speed Heading
2026-04-21 12:18 26.47736 49.81273 84 ft 0 kts 345°
2026-04-21 12:37 26.47738 49.81272 84 ft 1 kts 345°
2026-04-21 12:38 26.47763 49.81263 85 ft 6 kts 332°
2026-04-21 12:38 26.47764 49.81211 84 ft 8 kts 254°
2026-04-21 12:38 26.47786 49.81166 86 ft 8 kts 346°
2026-04-21 12:38 26.47839 49.81149 85 ft 8 kts 343°
2026-04-21 12:39 26.47890 49.81133 86 ft 8 kts 345°
2026-04-21 12:39 26.47940 49.81117 87 ft 7 kts 344°
2026-04-21 12:39 26.47988 49.81101 86 ft 7 kts 338°
2026-04-21 12:39 26.48008 49.81053 86 ft 9 kts 259°
2026-04-21 12:40 26.47987 49.80969 87 ft 12 kts 254°
2026-04-21 12:40 26.47955 49.80882 86 ft 12 kts 221°
2026-04-21 12:40 26.47874 49.80884 89 ft 12 kts 164°
2026-04-21 12:40 26.47796 49.80909 89 ft 12 kts 164°
2026-04-21 12:41 26.47719 49.80932 86 ft 11 kts 165°
2026-04-21 12:41 26.47645 49.80955 85 ft 11 kts 165°
2026-04-21 12:41 26.47573 49.80977 86 ft 11 kts 165°
2026-04-21 12:41 26.47498 49.81000 88 ft 13 kts 164°
2026-04-21 12:42 26.47406 49.81029 86 ft 14 kts 164°
2026-04-21 12:42 26.47310 49.81059 85 ft 16 kts 165°
2026-04-21 12:42 26.47183 49.81098 87 ft 21 kts 165°
2026-04-21 12:42 26.47037 49.81144 84 ft 22 kts 165°
2026-04-21 12:43 26.46894 49.81187 88 ft 21 kts 165°
2026-04-21 12:43 26.46756 49.81230 85 ft 20 kts 164°
2026-04-21 12:43 26.46621 49.81272 88 ft 20 kts 165°
2026-04-21 12:43 26.46491 49.81312 85 ft 19 kts 164°
2026-04-21 12:44 26.46366 49.81350 88 ft 18 kts 165°
2026-04-21 12:44 26.46243 49.81388 87 ft 18 kts 164°
2026-04-21 12:44 26.46127 49.81424 86 ft 17 kts 164°
2026-04-21 12:44 26.46014 49.81459 85 ft 17 kts 165°
2026-04-21 12:45 26.45904 49.81493 86 ft 16 kts 164°
2026-04-21 12:45 26.45797 49.81526 84 ft 17 kts 165°
2026-04-21 12:45 26.45683 49.81561 87 ft 17 kts 164°
2026-04-21 12:45 26.45572 49.81596 87 ft 16 kts 164°
2026-04-21 12:46 26.45472 49.81624 87 ft 13 kts 176°
2026-04-21 12:46 26.45424 49.81561 87 ft 11 kts 260°
2026-04-21 12:46 26.45432 49.81476 86 ft 11 kts 293°
2026-04-21 12:46 26.45484 49.81417 87 ft 11 kts 333°
2026-04-21 12:47 26.45623 49.81370 87 ft 44 kts 345°
2026-04-21 12:47 26.46147 49.81208 87 ft 109 kts 344°
2026-04-21 12:47 26.47057 49.80925 143 ft 154 kts 348°
2026-04-21 12:47 26.48104 49.80597 745 ft 158 kts 348°
2026-04-21 12:48 26.49160 49.80261 1477 ft 157 kts 347°
2026-04-21 12:48 26.50217 49.79933 2069 ft 163 kts 345°
2026-04-21 12:48 26.51401 49.79578 2288 ft 188 kts 345°
2026-04-21 12:48 26.52712 49.79191 2807 ft 198 kts 342°
2026-04-21 12:49 26.54068 49.78766 3233 ft 207 kts 338°
2026-04-21 12:49 26.55458 49.78302 3713 ft 210 kts 339°
2026-04-21 12:49 26.56864 49.77847 4137 ft 212 kts 339°
2026-04-21 12:49 26.58381 49.77727 4334 ft 229 kts
2026-04-21 12:50 26.59764 49.78571 4830 ft 238 kts 41°
2026-04-21 12:50 26.60602 49.80198 5220 ft 251 kts 76°
2026-04-21 12:50 26.60674 49.82172 5587 ft 260 kts 101°
2026-04-21 12:50 26.60235 49.84139 6064 ft 267 kts 121°
2026-04-21 12:51 26.58998 49.85707 6256 ft 277 kts 151°
2026-04-21 12:51 26.57353 49.86912 6713 ft 286 kts 153°
2026-04-21 12:51 26.55671 49.88118 6984 ft 289 kts 153°
2026-04-21 12:51 26.53989 49.89347 6991 ft 288 kts 152°
2026-04-21 12:52 26.52323 49.90589 6997 ft 287 kts 152°
2026-04-21 12:52 26.50668 49.91841 7001 ft 287 kts 151°
2026-04-21 12:52 26.49019 49.93097 7003 ft 287 kts 151°
2026-04-21 12:52 26.47371 49.94356 7005 ft 287 kts 151°
2026-04-21 12:53 26.45727 49.95609 6995 ft 287 kts 152°
2026-04-21 12:53 26.43936 49.96483 6997 ft 277 kts 176°
2026-04-21 12:53 26.42059 49.96401 7005 ft 267 kts 199°
2026-04-21 12:53 26.40381 49.95576 7010 ft 262 kts 214°
2026-04-21 12:54 26.38824 49.94496 7130 ft 266 kts 215°
2026-04-21 12:54 26.37268 49.93386 7924 ft 262 kts 214°
2026-04-21 12:54 26.35752 49.92300 8828 ft 258 kts 214°
2026-04-21 12:54 26.34241 49.91216 9644 ft 258 kts 214°
2026-04-21 12:55 26.32670 49.90302 10325 ft 264 kts 202°
2026-04-21 12:55 26.30869 49.89673 10761 ft 278 kts 200°
2026-04-21 12:55 26.28982 49.89065 11274 ft 287 kts 199°
2026-04-21 12:55 26.27043 49.88445 11897 ft 293 kts 200°
2026-04-21 12:56 26.25076 49.87811 12653 ft 294 kts 200°
2026-04-21 12:56 26.23119 49.87176 13497 ft 293 kts 201°
2026-04-21 12:56 26.21180 49.86540 13850 ft 290 kts 201°
2026-04-21 12:56 26.19239 49.85899 13952 ft 290 kts 201°
2026-04-21 12:57 26.17301 49.85255 13989 ft 292 kts 201°
2026-04-21 12:57 26.15346 49.84604 13990 ft 293 kts 201°
2026-04-21 12:57 26.13393 49.83953 13998 ft 292 kts 201°
2026-04-21 12:57 26.11443 49.83303 14000 ft 292 kts 201°
2026-04-21 12:58 26.09500 49.82655 13995 ft 292 kts 201°
2026-04-21 12:58 26.07553 49.82005 14007 ft 291 kts 201°
2026-04-21 12:58 26.05612 49.81357 14003 ft 291 kts 201°
2026-04-21 12:58 26.03670 49.80709 14001 ft 291 kts 201°
2026-04-21 12:59 26.01756 49.80070 14006 ft 291 kts 201°
2026-04-21 12:59 26.00445 49.79633 14004 ft 291 kts 201°
2026-04-21 12:59 25.97869 49.78774 14003 ft 292 kts 201°
2026-04-21 12:59 25.95919 49.78124 14005 ft 292 kts 201°
2026-04-21 13:00 25.94606 49.77687 13999 ft 292 kts 201°
2026-04-21 13:00 25.92036 49.76830 13995 ft 291 kts 201°
2026-04-21 13:00 25.90724 49.76394 13998 ft 291 kts 201°
2026-04-21 13:00 25.88783 49.75747 14001 ft 291 kts 201°
2026-04-21 13:01 25.86864 49.75109 14001 ft 292 kts 201°
2026-04-21 13:01 25.84918 49.74461 13998 ft 292 kts 200°
2026-04-21 13:01 25.83000 49.73824 13983 ft 283 kts 201°
2026-04-21 13:01 25.81139 49.73207 13984 ft 275 kts 201°
2026-04-21 13:02 25.79312 49.72599 13990 ft 274 kts 201°
2026-04-21 13:02 25.77491 49.71993 13983 ft 274 kts 201°
2026-04-21 13:02 25.73833 49.70778 13575 ft 274 kts 200°
2026-04-21 13:03 25.72026 49.70127 13245 ft 272 kts 205°
2026-04-21 13:03 25.70296 49.69309 12946 ft 269 kts 207°
2026-04-21 13:03 25.68602 49.68452 12635 ft 267 kts 207°
2026-04-21 13:03 25.66912 49.67593 12325 ft 266 kts 207°
2026-04-21 13:04 25.65228 49.66742 12022 ft 266 kts 207°
2026-04-21 13:04 25.63543 49.65898 11720 ft 264 kts 207°
2026-04-21 13:04 25.61867 49.65064 11424 ft 263 kts 207°
2026-04-21 13:04 25.60221 49.64250 11134 ft 263 kts 206°
2026-04-21 13:05 25.58530 49.63413 10834 ft 262 kts 206°
2026-04-21 13:05 25.56888 49.62601 10534 ft 262 kts 206°
2026-04-21 13:05 25.55224 49.61780 10238 ft 262 kts 206°
2026-04-21 13:05 25.53576 49.60969 10093 ft 256 kts 206°
2026-04-21 13:06 25.51949 49.60168 9828 ft 256 kts 206°
2026-04-21 13:06 25.50323 49.59367 9535 ft 256 kts 205°
2026-04-21 13:06 25.48698 49.58569 9235 ft 256 kts 205°
2026-04-21 13:06 25.47063 49.57768 8931 ft 257 kts 205°
2026-04-21 13:07 25.45429 49.56970 8644 ft 257 kts 205°
2026-04-21 13:07 25.43797 49.56172 8348 ft 257 kts 205°
2026-04-21 13:07 25.42168 49.55375 8054 ft 255 kts 205°
2026-04-21 13:07 25.40498 49.54733 7771 ft 256 kts 188°
2026-04-21 13:08 25.38718 49.54927 7497 ft 260 kts 169°
2026-04-21 13:08 25.36979 49.55488 7259 ft 260 kts 166°
2026-04-21 13:08 25.35263 49.56088 7079 ft 257 kts 166°
2026-04-21 13:08 25.33575 49.56689 6908 ft 253 kts 166°
2026-04-21 13:09 25.31919 49.57288 6803 ft 246 kts 166°
2026-04-21 13:09 25.30322 49.57874 6742 ft 238 kts 166°
2026-04-21 13:09 25.28768 49.58449 6638 ft 236 kts 166°
2026-04-21 13:09 25.27182 49.59026 6431 ft 251 kts 167°
2026-04-21 13:10 25.25461 49.59563 6187 ft 260 kts 168°
2026-04-21 13:10 25.23703 49.60071 5973 ft 264 kts 168°
2026-04-21 13:10 25.21919 49.60564 5775 ft 261 kts 168°
2026-04-21 13:10 25.20192 49.61024 5523 ft 253 kts 168°
2026-04-21 13:11 25.18449 49.61446 5056 ft 257 kts 168°
2026-04-21 13:11 25.16682 49.61805 4620 ft 260 kts 168°
2026-04-21 13:11 25.14886 49.62070 4227 ft 260 kts 178°
2026-04-21 13:11 25.13213 49.61474 4105 ft 254 kts 215°
2026-04-21 13:12 25.12103 49.60020 3998 ft 244 kts 239°
2026-04-21 13:12 25.11481 49.58339 3920 ft 229 kts 258°
2026-04-21 13:12 25.11278 49.56632 3835 ft 223 kts 266°
2026-04-21 13:12 25.11375 49.54927 3641 ft 225 kts 294°
2026-04-21 13:13 25.12237 49.53598 3438 ft 205 kts 330°
2026-04-21 13:13 25.13455 49.52983 3233 ft 185 kts 351°
2026-04-21 13:13 25.14666 49.52645 3058 ft 175 kts 352°
2026-04-21 13:13 25.15824 49.52318 2839 ft 170 kts 352°
2026-04-21 13:14 25.16961 49.51983 2627 ft 167 kts 351°
2026-04-21 13:14 25.18049 49.51659 2419 ft 156 kts 351°
2026-04-21 13:14 25.19051 49.51358 2232 ft 150 kts 352°
2026-04-21 13:14 25.20047 49.51062 2042 ft 148 kts 352°
2026-04-21 13:15 25.21036 49.50769 1845 ft 147 kts 352°
2026-04-21 13:15 25.22004 49.50478 1656 ft 141 kts 352°
2026-04-21 13:15 25.22941 49.50197 1495 ft 138 kts 352°
2026-04-21 13:15 25.23867 49.49924 1308 ft 138 kts 353°
2026-04-21 13:16 25.24796 49.49646 1131 ft 139 kts 354°
2026-04-21 13:16 25.25740 49.49370 927 ft 142 kts 353°
2026-04-21 13:16 25.26688 49.49080 715 ft 141 kts 353°
2026-04-21 13:16 25.27626 49.48797 590 ft 139 kts 353°
2026-04-21 13:17 25.28446 49.48554 586 ft 101 kts 345°
2026-04-21 13:17 25.28884 49.48425 591 ft 26 kts 345°
2026-04-21 13:17 25.29050 49.48374 592 ft 24 kts 344°
2026-04-21 13:17 25.29206 49.48329 594 ft 23 kts 346°
2026-04-21 13:18 25.29322 49.48298 594 ft 13 kts 359°
2026-04-21 13:18 25.29377 49.48363 594 ft 13 kts 75°
2026-04-21 13:18 25.29398 49.48455 594 ft 12 kts 75°
2026-04-21 13:18 25.29421 49.48544 594 ft 12 kts 74°
2026-04-21 13:19 25.29435 49.48625 594 ft 10 kts 101°
2026-04-21 13:19 25.29396 49.48647 593 ft 5 kts 164°
2026-04-21 13:19 25.29387 49.48650 593 ft 0 kts 164°